Voltar ao catálogo

STARLINK-38119

AtivoComunicaçõesVLEO
NORAD 100009·PAYLOAD·🇺🇸 United States

Lançado Jul 14, 2026 de Vandenberg Space Force Base

Loading…

Próximas Passagens (próximas 24 horas)

TLE

AtualizadoSource: Space-Track

Época: Sep 14, 2026, 07:35 UTC

1 A0009U 26160J   26257.31632601  .00181531  00000-0  10649-2 0  9999
2 A0009  70.0011 212.6121 0003168 271.1926  88.8910 15.77607405 11010

Acompanhe STARLINK-38119 em tempo real com AllMySat

Download on the App Store